Regional Weather Roundup
Issued by NWS Goodland, KS

Home | Current Version | Previous Version | Text Only | Print | Product List | Glossary On
Versions: 1 2 3 4 5 6 7 8 9 10 11 12 13 14 15 16 17 18 19 20 21 22 23 24 25 26 27 28 29 30 31 32 33 34 35 36 37 38 39 40 41 42 43 44 45 46 47 48 49 50
000
ASUS43 KGLD 260808
RWRGLD

GOODLAND FORECAST AREA HOURLY WEATHER ROUNDUP
NATIONAL WEATHER SERVICE GOODLAND KS
200 AM MDT TUE JUL 26 2016

...OFFICIAL OBSERVATIONS...

CITY           SKY/WX    TMP DP  RH WIND       PRES   REMARKS
GOODLAND KS    PTCLDY    67  64  90 SE10      30.13S
HILL CITY KS   PTCLDY    67  65  93 E5        30.10F
IMPERIAL NEB   CLEAR     69  64  84 S12       30.11S
MCCOOK NEB     CLEAR     69  63  81 E6        30.10F
AKRON CO       CLEAR     63  58  83 SE12      30.14F
BURLINGTON CO  CLEAR     68  63  84 SE9       30.16R
LIMON CO       NOT AVBL
$$

...UNOFFICIAL OBSERVATIONS...

CITY           SKY/WX    TMP DP  RH WIND       PRES   REMARKS
COLBY KS       CLEAR     68  68 100 SE7       30.14S
GOVE KS          N/A     67  32  27 MISG        N/A
LENORA KS        N/A     68  32  26 MISG        N/A
NORTON KS      CLEAR     68  61  77 SE8       30.10S
SHARON SPRINGS   N/A     68  65  90 SE10        N/A
KIT CARSON CO    N/A     68  63  83 MISG        N/A
YUMA CO          N/A     63  61  94 CALM        N/A
$$



USA.gov is the U.S. government's official web portal to all federal, state and local government web resources and services.